This demonstration page uses our WeatherBlox Daily Observations layout. Learn more.

Left ArrowRight Arrow

38.20091, -84.87328

Hourly Observations for July 6, 2018

Temp ( °F °C ) Dew Point ( °F °C ) Humidity (%) Winds ( mph kmh ) Pressure ( in mb ) Visibility ( mi km ) Precip ( " mm )
12:53 am 00:53 Clear 76 24.4 71 21.7 85 85 NNW 5 7 30.19 1022 10 16 0.00 0.00
1:53 am 01:53 Clear 75 23.9 71 21.7 88 88 Calm 30.19 1022 10 16 0.00 0.00
2:53 am 02:53 Clear 75 23.9 70 21.1 84 84 NNW 3 6 30.19 1022 10 16 0.00 0.00
3:53 am 03:53 Clear 75 23.9 70 21.1 84 84 Calm 30.19 1022 10 16 0.00 0.00
4:53 am 04:53 Clear 74 23.3 70 21.1 88 88 Calm 30.19 1022 10 16 0.00 0.00
5:53 am 05:53 Clear 73 22.8 70 21.1 90 90 NW 5 7 30.19 1023 10 16 0.00 0.00
6:53 am 06:53 Sunny 74 23.3 70 21.1 88 88 N 3 6 30.20 1023 10 16 0.00 0.00
7:53 am 07:53 Sunny 74 23.3 70 21.1 88 88 NNW 3 6 30.20 1023 10 16 0.00 0.00
8:53 am 08:53 Sunny 75 23.9 71 21.7 88 88 NNW 5 7 30.21 1023 10 16 0.00 0.00
9:53 am 09:53 Sunny 77 25 71 21.7 82 82 N 6 9 30.21 1023 10 16 0.00 0.00
10:51 am 10:51 Cloudy 79 26 72 22 79 79 N 5 7 30.21 1023 10 16 0.00 0.00
10:53 am 10:53 Cloudy 79 26.1 72 22.2 79 79 N 5 7 30.21 1023 10 16 0.00 0.00
11:16 am 11:16 Mostly Cloudy 82 27.8 73 22.8 74 74 N 6 9 30.21 1023 10 16 0.00 0.00
11:35 am 11:35 Mostly Cloudy 82 27.8 73 22.8 74 74 N 3 6 30.21 1023 10 16 0.00 0.00
11:53 am 11:53 Cloudy 82 27.8 73 22.8 74 74 N 8 13 30.21 1023 10 16 0.00 0.00
12:28 pm 12:28 Cloudy 84 28.9 73 22.8 70 70 NNE 6 9 30.21 1023 10 16 0.00 0.00
12:50 pm 12:50 Partly Cloudy with Nearby Thunderstorms 84 29 73 23 70 70 NNE 9 15 30.21 1023 10 16 0.00 0.00
12:53 pm 12:53 Partly Cloudy with Nearby Thunderstorms 85 29.4 73 22.8 68 68 N 7 11 30.20 1023 10 16 0.00 0.00
1:19 pm 13:19 Mostly Sunny 86 30 72 22.2 63 63 N 9 15 30.18 1022 10 16 0.00 0.00
1:53 pm 13:53 Partly Cloudy 85 29.4 72 22.2 65 65 NNE 12 19 30.19 1022 10 16 0.00 0.00
2:03 pm 14:03 Partly Cloudy with Nearby Thunderstorms 80 26.7 75 23.9 85 85 NE 8 13 30.18 1022 8 13 0.00 0.03
2:37 pm 14:37 Mostly Sunny 85 29.4 72 22.2 65 65 Calm 30.15 1021 10 16 0.00 0.03
2:53 pm 14:53 Partly Cloudy 87 30.6 73 22.8 63 63 N 15 24 30.16 1021 10 16 0.00 0.03
3:27 pm 15:27 Partly Cloudy with Nearby Thunderstorms 79 26.1 73 22.8 82 82 NNE 8 13 30.15 1021 10 16 0.02 0.51
3:53 pm 15:53 Mostly Sunny 83 28.3 72 22.2 70 70 NNE 14 22 30.15 1021 10 16 0.02 0.51
4:53 pm 16:53 Sunny 82 27.8 66 18.9 58 58 NNE 14 22 30.16 1022 10 16 0.00 0.00
5:53 pm 17:53 Partly Cloudy 83 28.3 63 17.2 51 51 NNE 8 13 30.16 1021 10 16 0.00 0.00
6:53 pm 18:53 Sunny 82 27.8 63 17.2 53 53 NE 6 9 30.16 1021 10 16 0.00 0.00
7:53 pm 19:53 Sunny 81 27.2 65 18.3 58 58 NE 10 17 30.16 1021 10 16 0.00 0.00
8:53 pm 20:53 Sunny 79 26.1 65 18.3 62 62 NE 6 9 30.17 1022 10 16 0.00 0.00
9:53 pm 21:53 Clear 77 25 60 15.6 56 56 NE 8 13 30.19 1023 10 16 0.00 0.00
10:53 pm 22:53 Clear 74 23.3 57 13.9 56 56 NE 7 11 30.21 1023 10 16 0.00 0.00
11:53 pm 23:53 Clear 72 22.2 56 13.3 57 57 NNE 7 11 30.22 1023 10 16 0.00 0.00

Powered by AerisWeather